When you browse on this site, cookies collect data to enhance your experience and personalize the content and advertising you see.
Visit our Privacy Policy to learn more. By continuing to use the site, you agree to this use of cookies and data.
  • en France
  • Liste des pays
  • À 7 jours
  • Température de l'eau
  • Carte satellitaire
  • Carte météo
  • Widgets météo
  • user-avatar
    Se connecter

    Météo par heure à Maidougouri

    Ce jour, 22 Janvier, Mardi

    Heure Température Précipitation Vent Pression Humidité
    00:00 +26°C° 0 mm 2 m/s 728 mmHg 14%
    01:00 +26°C° 0 mm 2 m/s 728 mmHg 15%
    02:00 +25°C° 0 mm 2 m/s 728 mmHg 16%
    03:00 +24°C° 0 mm 1 m/s 727 mmHg 16%
    04:00 +23°C° 0 mm 1 m/s 727 mmHg 17%
    05:00 +23°C° 0 mm 1 m/s 727 mmHg 18%
    06:00 +23°C° 0 mm 1 m/s 728 mmHg 19%
    07:00 +22°C° 0 mm 1 m/s 728 mmHg 20%
    08:00 +26°C° 0 mm 2 m/s 729 mmHg 18%
    09:00 +29°C° 0 mm 2 m/s 729 mmHg 17%
    10:00 +33°C° 0 mm 3 m/s 730 mmHg 15%
    11:00 +35°C° 0 mm 3 m/s 729 mmHg 13%
    12:00 +37°C° 0 mm 3 m/s 729 mmHg 11%
    13:00 +39°C° 0 mm 3 m/s 728 mmHg 9%
    14:00 +39°C° 0 mm 3 m/s 728 mmHg 9%
    15:00 +39°C° 0 mm 3 m/s 727 mmHg 9%
    16:00 +39°C° 0 mm 2 m/s 726 mmHg 8%
    17:00 +37°C° 0 mm 3 m/s 726 mmHg 10%
    18:00 +35°C° 0 mm 3 m/s 726 mmHg 12%
    19:00 +31°C° 0 mm 3 m/s 726 mmHg 13%
    20:00 +30°C° 0 mm 3 m/s 727 mmHg 14%
    21:00 +29°C° 0 mm 3 m/s 727 mmHg 15%
    22:00 +28°C° 0 mm 3 m/s 728 mmHg 16%
    23:00 +27°C° 0 mm 2 m/s 728 mmHg 16%

    Demain, 23 Janvier, Mercredi

    Heure Température Précipitation Vent Pression Humidité
    00:00 +27°C° 0 mm 2 m/s 727 mmHg 16%
    01:00 +26°C° 0 mm 1 m/s 727 mmHg 16%
    02:00 +25°C° 0 mm 1 m/s 727 mmHg 17%
    03:00 +24°C° 0 mm 1 m/s 727 mmHg 18%
    04:00 +22°C° 0 mm 0 m/s 726 mmHg 19%
    05:00 +24°C° 0 mm 1 m/s 727 mmHg 19%
    06:00 +24°C° 0 mm 1 m/s 727 mmHg 19%
    07:00 +24°C° 0 mm 1 m/s 727 mmHg 20%
    08:00 +27°C° 0 mm 1 m/s 727 mmHg 17%
    09:00 +31°C° 0 mm 1 m/s 728 mmHg 14%
    10:00 +35°C° 0 mm 2 m/s 729 mmHg 10%
    11:00 +37°C° 0 mm 1 m/s 728 mmHg 9%
    12:00 +40°C° 0 mm 1 m/s 728 mmHg 8%
    13:00 +39°C° 0 mm 0 m/s 727 mmHg 7%
    14:00 +42°C° 0 mm 1 m/s 726 mmHg 7%
    15:00 +42°C° 0 mm 1 m/s 726 mmHg 7%
    16:00 +41°C° 0 mm 2 m/s 725 mmHg 7%
    17:00 +39°C° 0 mm 2 m/s 725 mmHg 9%
    18:00 +37°C° 0 mm 2 m/s 725 mmHg 10%
    19:00 +34°C° 0 mm 2 m/s 726 mmHg 11%
    20:00 +32°C° 0 mm 2 m/s 726 mmHg 13%
    21:00 +31°C° 0 mm 3 m/s 726 mmHg 14%
    22:00 +30°C° 0 mm 3 m/s 727 mmHg 15%
    23:00 +28°C° 0 mm 2 m/s 727 mmHg 16%

    Après-demain, 24 Janvier, Jeudi

    Heure Température Précipitation Vent Pression Humidité
    00:00 +27°C° 0 mm 1 m/s 726 mmHg 18%
    01:00 +26°C° 0 mm 1 m/s 726 mmHg 20%
    02:00 +26°C° 0 mm 1 m/s 726 mmHg 21%
    03:00 +25°C° 0 mm 1 m/s 726 mmHg 21%
    04:00 +25°C° 0 mm 2 m/s 726 mmHg 22%
    05:00 +25°C° 0 mm 2 m/s 726 mmHg 22%
    06:00 +24°C° 0 mm 2 m/s 726 mmHg 23%
    07:00 +24°C° 0 mm 2 m/s 726 mmHg 23%
    08:00 +27°C° 0 mm 2 m/s 727 mmHg 19%
    09:00 +30°C° 0 mm 3 m/s 728 mmHg 16%
    10:00 +34°C° 0 mm 3 m/s 728 mmHg 12%
    11:00 +35°C° 0 mm 3 m/s 728 mmHg 11%
    12:00 +37°C° 0 mm 3 m/s 727 mmHg 10%
    13:00 +39°C° 0 mm 3 m/s 727 mmHg 10%
    14:00 +39°C° 0 mm 2 m/s 726 mmHg 9%
    15:00 +39°C° 0 mm 2 m/s 725 mmHg 9%
    16:00 +39°C° 0 mm 2 m/s 725 mmHg 9%
    17:00 +37°C° 0 mm 3 m/s 725 mmHg 10%
    18:00 +35°C° 0 mm 3 m/s 725 mmHg 11%
    19:00 +32°C° 0 mm 4 m/s 726 mmHg 12%
    20:00 +30°C° 0 mm 4 m/s 726 mmHg 12%
    21:00 +28°C° 0 mm 3 m/s 727 mmHg 12%
    22:00 +27°C° 0 mm 2 m/s 727 mmHg 12%
    23:00 +26°C° 0 mm 2 m/s 727 mmHg 12%

    25 Janvier, Vendredi

    Heure Température Précipitation Vent Pression Humidité
    00:00 +26°C° 0 mm 2 m/s 727 mmHg 12%
    01:00 +25°C° 0 mm 2 m/s 727 mmHg 11%
    02:00 +25°C° 0 mm 1 m/s 726 mmHg 11%
    03:00 +24°C° 0 mm 1 m/s 726 mmHg 11%
    04:00 +24°C° 0 mm 1 m/s 726 mmHg 11%
    05:00 +23°C° 0 mm 1 m/s 727 mmHg 12%
    06:00 +23°C° 0 mm 1 m/s 727 mmHg 12%
    07:00 +23°C° 0 mm 1 m/s 727 mmHg 12%
    08:00 +27°C° 0 mm 1 m/s 728 mmHg 11%
    09:00 +30°C° 0 mm 1 m/s 729 mmHg 9%
    10:00 +34°C° 0 mm 1 m/s 729 mmHg 7%
    11:00 +35°C° 0 mm 1 m/s 728 mmHg 7%
    12:00 +38°C° 0 mm 2 m/s 728 mmHg 7%
    13:00 +40°C° 0 mm 2 m/s 727 mmHg 7%
    14:00 +40°C° 0 mm 2 m/s 727 mmHg 7%
    15:00 +40°C° 0 mm 2 m/s 726 mmHg 8%
    16:00 +40°C° 0 mm 2 m/s 725 mmHg 8%
    17:00 +38°C° 0 mm 2 m/s 725 mmHg 9%
    18:00 +36°C° 0 mm 3 m/s 726 mmHg 10%
    19:00 +33°C° 0 mm 3 m/s 726 mmHg 11%
    20:00 +31°C° 0 mm 3 m/s 726 mmHg 12%
    21:00 +29°C° 0 mm 3 m/s 727 mmHg 13%
    22:00 +28°C° 0 mm 3 m/s 727 mmHg 14%
    23:00 +27°C° 0 mm 2 m/s 727 mmHg 15%

    26 Janvier, Samedi

    Heure Température Précipitation Vent Pression Humidité
    00:00 +26°C° 0 mm 1 m/s 727 mmHg 16%
    01:00 +25°C° 0 mm 1 m/s 727 mmHg 16%
    02:00 +24°C° 0 mm 1 m/s 726 mmHg 16%
    03:00 +22°C° 0 mm 0 m/s 726 mmHg 16%
    04:00 +21°C° 0 mm 0 m/s 726 mmHg 16%
    05:00 +21°C° 0 mm 0 m/s 727 mmHg 16%
    06:00 +23°C° 0 mm 1 m/s 727 mmHg 16%
    07:00 +23°C° 0 mm 1 m/s 728 mmHg 15%
    08:00 +26°C° 0 mm 1 m/s 728 mmHg 13%
    09:00 +30°C° 0 mm 2 m/s 729 mmHg 10%
    10:00 +34°C° 0 mm 3 m/s 729 mmHg 8%
    11:00 +36°C° 0 mm 3 m/s 729 mmHg 8%
    12:00 +37°C° 0 mm 3 m/s 728 mmHg 7%
    13:00 +39°C° 0 mm 3 m/s 727 mmHg 7%
    14:00 +39°C° 0 mm 3 m/s 727 mmHg 7%
    15:00 +40°C° 0 mm 3 m/s 726 mmHg 7%
    16:00 +40°C° 0 mm 3 m/s 726 mmHg 7%
    17:00 +37°C° 0 mm 3 m/s 726 mmHg 7%
    18:00 +35°C° 0 mm 3 m/s 726 mmHg 8%
    19:00 +33°C° 0 mm 3 m/s 727 mmHg 9%
    20:00 +30°C° 0 mm 3 m/s 727 mmHg 10%
    21:00 +28°C° 0 mm 3 m/s 727 mmHg 11%
    22:00 +27°C° 0 mm 3 m/s 728 mmHg 12%
    23:00 +26°C° 0 mm 2 m/s 727 mmHg 12%

    27 Janvier, Dimanche

    Heure Température Précipitation Vent Pression Humidité
    00:00 +25°C° 0 mm 2 m/s 727 mmHg 12%
    01:00 +24°C° 0 mm 1 m/s 727 mmHg 12%
    02:00 +24°C° 0 mm 2 m/s 727 mmHg 12%
    03:00 +23°C° 0 mm 2 m/s 727 mmHg 12%
    04:00 +23°C° 0 mm 2 m/s 726 mmHg 12%
    05:00 +21°C° 0 mm 2 m/s 727 mmHg 18%
    06:00 +21°C° 0 mm 2 m/s 727 mmHg 24%
    07:00 +20°C° 0 mm 2 m/s 727 mmHg 30%
    08:00 +24°C° 0 mm 3 m/s 728 mmHg 26%
    09:00 +27°C° 0 mm 3 m/s 728 mmHg 23%
    10:00 +29°C° 0 mm 4 m/s 729 mmHg 19%
    11:00 +31°C° 0 mm 3 m/s 728 mmHg 16%
    12:00 +34°C° 0 mm 3 m/s 728 mmHg 13%
    13:00 +36°C° 0 mm 3 m/s 727 mmHg 10%
    14:00 +36°C° 0 mm 3 m/s 727 mmHg 10%
    15:00 +37°C° 0 mm 3 m/s 726 mmHg 10%
    16:00 +37°C° 0 mm 3 m/s 725 mmHg 10%
    17:00 +35°C° 0 mm 3 m/s 726 mmHg 11%
    18:00 +32°C° 0 mm 4 m/s 726 mmHg 13%
    19:00 +29°C° 0 mm 4 m/s 726 mmHg 15%
    20:00 +28°C° 0 mm 3 m/s 727 mmHg 14%
    21:00 +27°C° 0 mm 3 m/s 727 mmHg 14%
    22:00 +25°C° 0 mm 2 m/s 728 mmHg 14%
    23:00 +25°C° 0 mm 2 m/s 727 mmHg 13%
    Voir plus